Stations météo

réclame
Mon MeteoGroup
Santiago de Compostela/Labacolla, Espagne (8042): Température de l'air & dewpoint: 16.01.2018 21:00:00 - 22.01.2018 21:00:00 (CET)Santiago de Compostela/Labacolla, Espagne (8042): Vitesse du vent: 16.01.2018 21:00:00 - 22.01.2018 21:00:00 (CET)Santiago de Compostela/Labacolla, Espagne (8042): Direction du vent: 16.01.2018 21:00:00 - 22.01.2018 21:00:00 (CET)Santiago de Compostela/Labacolla, Espagne (8042): reduced air pressure: 16.01.2018 21:00:00 - 22.01.2018 21:00:00 (CET)Santiago de Compostela/Labacolla, Espagne (8042): visibility: 16.01.2018 21:00:00 - 22.01.2018 21:00:00 (CET)
Date & Time tt [°C] td [°C] ff [km/h] ff [knt] dd ppp [hPa] vv [km]
22.01.2018 21:00:00 - - - - - - -
22.01.2018 20:00:00 10,6 10,4 9 5 S 1031,0 2,3
22.01.2018 19:00:00 10,8 10,5 8 4 SSW 1030,9 3,0
22.01.2018 18:00:00 10,9 10,6 9 5 SSW 1030,6 3,4
22.01.2018 17:00:00 11,3 10,5 9 5 SW 1030,3 3,6
22.01.2018 16:00:00 11,1 10,6 11 6 SW 1030,2 5
22.01.2018 15:00:00 11,2 10,6 11 6 SW 1030,5 2,8
22.01.2018 14:00:00 11,3 10,7 11 6 SW 1031,0 6
22.01.2018 13:00:00 11,1 10,5 8 4 SSW 1031,5 3,0
22.01.2018 12:00:00 10,7 10,4 15 8 SSW 1031,8 11
22.01.2018 11:00:00 10,1 9,9 8 4 SSW 1031,8 2,3
22.01.2018 10:00:00 9,9 9,5 11 6 SW 1031,4 1,3
22.01.2018 09:00:00 9,9 9,4 15 8 SW 1031,1 30
22.01.2018 08:00:00 9,8 9,6 8 4 SSW 1031,0 3,2
22.01.2018 07:00:00 9,8 9,5 8 4 WSW 1031,1 6
22.01.2018 06:00:00 10,1 9,8 11 6 WSW 1030,9 13
22.01.2018 05:00:00 10,0 9,8 9 5 WSW 1031,0 4,2
22.01.2018 04:00:00 10,0 9,8 9 5 SW 1031,2 3,0
22.01.2018 03:00:00 10,2 9,9 13 7 SW 1031,1 13
22.01.2018 02:00:00 10,3 9,8 16 9 SW 1031,3 2,7
22.01.2018 01:00:00 10,7 10,5 11 6 SW 1031,7 3,0
22.01.2018 00:00:00 10,8 10,5 9 5 SW 1031,7 4,6
21.01.2018 23:00:00 10,8 10,6 11 6 SW 1031,6 3,5
21.01.2018 22:00:00 10,7 10,5 9 5 SW 1031,6 3,0
21.01.2018 21:00:00 10,8 10,5 9 5 SW 1031,8 7
21.01.2018 20:00:00 10,8 10,3 9 5 SW 1031,7 4,5
21.01.2018 19:00:00 11,0 10,5 8 4 SW 1031,3 5
21.01.2018 18:00:00 11,2 10,7 13 7 SSW 1031,2 11
21.01.2018 17:00:00 11,4 11,1 11 6 SSW 1031,4 8
21.01.2018 16:00:00 11,5 11,2 13 7 SW 1031,3 5
21.01.2018 15:00:00 11,5 11,0 9 5 SW 1031,5 9
21.01.2018 14:00:00 11,3 11,0 11 6 SSW 1032,0 9
21.01.2018 13:00:00 11,1 10,8 8 4 SW 1032,7 8
21.01.2018 12:00:00 10,8 10,6 9 5 SSW 1032,9 9
21.01.2018 11:00:00 10,7 10,7 13 7 SSW 1032,3 11
21.01.2018 10:00:00 10,6 10,6 18 10 SSW 1031,9 2,8
21.01.2018 09:00:00 10,6 10,6 5 3 SW 1031,7 9
21.01.2018 08:00:00 10,6 10,6 5 3 SW 1031,4 0,9
21.01.2018 07:00:00 10,6 10,6 5 3 SSW 1030,9 0,8
21.01.2018 06:00:00 10,6 10,4 8 4 SSW 1030,8 -
21.01.2018 05:00:00 10,6 10,4 9 5 SSW 1031,1 -
21.01.2018 04:00:00 10,6 10,4 8 4 SW 1031,2 0,3
21.01.2018 03:00:00 10,6 10,4 9 5 SW 1031,0 -
21.01.2018 02:00:00 10,6 10,4 9 5 SW 1031,1 -
21.01.2018 01:00:00 10,6 10,4 11 6 SSW 1031,2 0,5
21.01.2018 00:00:00 10,5 10,3 8 4 SW 1030,9 -
20.01.2018 23:00:00 10,5 10,3 8 4 SSW 1030,9 3,0
20.01.2018 22:00:00 10,5 10,3 11 6 SW 1030,7 3,0
20.01.2018 21:00:00 10,4 10,2 5 3 SSW 1030,7 -
20.01.2018 20:00:00 10,3 10,1 8 4 SSW 1030,4 -
20.01.2018 19:00:00 10,3 10,1 9 5 SW 1030,0 0,8
20.01.2018 18:00:00 10,3 10,1 16 9 SW 1029,4 -
20.01.2018 17:00:00 10,2 10,0 13 7 SW 1028,8 2,7
20.01.2018 16:00:00 10,0 9,8 15 8 SW 1028,5 1,5
20.01.2018 15:00:00 9,8 9,7 15 8 SW 1028,4 2,7
20.01.2018 14:00:00 9,6 9,5 15 8 SSW 1028,6 1,1
20.01.2018 13:00:00 9,0 8,9 15 8 SSW 1029,3 0,1
20.01.2018 12:00:00 8,4 8,3 16 9 SSW 1029,7 -
20.01.2018 11:00:00 8,0 7,7 13 7 SSW 1029,8 1,8
20.01.2018 10:00:00 7,6 7,3 9 5 SSW 1029,5 3,0
20.01.2018 09:00:00 7,2 6,8 15 8 SSW 1029,2 -
20.01.2018 08:00:00 6,9 6,5 15 8 SSW 1028,8 5
20.01.2018 07:00:00 6,9 6,2 9 5 SSW 1028,6 6
20.01.2018 06:00:00 6,1 5,1 11 6 SSW 1028,6 16
20.01.2018 05:00:00 5,0 4,4 5 3 SSW 1028,9 12
20.01.2018 04:00:00 5,0 4,1 11 6 SSW 1029,1 10
20.01.2018 03:00:00 4,6 3,9 8 4 SW 1029,4 12
20.01.2018 02:00:00 4,7 4,3 0 0 N 1029,8 7
20.01.2018 01:00:00 4,9 4,3 8 4 S 1029,5 15
20.01.2018 00:00:00 5,3 4,5 8 4 S 1030,0 10
19.01.2018 23:00:00 5,8 4,6 4 2 S 1030,1 16
19.01.2018 22:00:00 5,1 3,8 5 3 WNW 1030,3 30
19.01.2018 21:00:00 6,6 5,3 8 4 NW 1029,7 18
19.01.2018 20:00:00 6,7 5,2 5 3 NW 1029,3 20
19.01.2018 19:00:00 6,8 5,4 9 5 NW 1029,1 25
19.01.2018 18:00:00 10,7 5,4 8 4 N 1027,7 30
19.01.2018 17:00:00 11,9 6,1 5 3 N 1026,9 30
19.01.2018 16:00:00 11,8 5,3 8 4 NNW 1026,8 30
19.01.2018 15:00:00 11,7 6,7 5 3 NNW 1026,5 29
19.01.2018 14:00:00 11,0 6,9 8 4 N 1027,2 29
19.01.2018 13:00:00 10,3 6,3 8 4 NNE 1027,9 25
19.01.2018 12:00:00 10,2 5,7 2 1 NW 1027,6 22
19.01.2018 11:00:00 9,3 7,4 9 5 N 1027,5 17
19.01.2018 10:00:00 8,2 7,8 21 11 NNW 1027,4 10
19.01.2018 09:00:00 8,8 8,7 16 9 NNW 1026,5 11
19.01.2018 08:00:00 9,1 9,0 5 3 NW 1025,5 2,2
19.01.2018 07:00:00 8,5 8,4 8 4 SSW 1024,9 0,1
19.01.2018 06:00:00 8,4 8,3 0 0 N 1025,0 -
19.01.2018 05:00:00 8,1 8,0 8 4 S 1024,8 -
19.01.2018 04:00:00 8,0 7,9 2 1 SSE 1025,3 0,2
19.01.2018 03:00:00 8,1 8,0 4 2 S 1025,2 -
19.01.2018 02:00:00 7,9 7,8 4 2 S 1025,4 -
19.01.2018 01:00:00 7,9 7,8 2 1 S 1025,8 0,4
19.01.2018 00:00:00 7,9 7,8 0 0 N 1025,8 -
18.01.2018 23:00:00 8,0 7,9 8 4 S 1025,9 1,5
18.01.2018 22:00:00 8,1 8,0 5 3 S 1026,0 2,0
18.01.2018 21:00:00 8,0 7,9 4 2 S 1026,0 1,9
18.01.2018 20:00:00 8,0 7,9 4 2 S 1025,8 1,5
18.01.2018 19:00:00 7,8 7,7 4 2 S 1025,7 2,5
18.01.2018 18:00:00 7,8 7,7 4 2 S 1025,5 1,7
18.01.2018 17:00:00 7,5 7,2 4 2 SSE 1025,6 1,1
18.01.2018 16:00:00 7,3 7,0 5 3 S 1025,6 2,0
18.01.2018 15:00:00 7,1 6,7 4 2 S 1026,2 2,8
18.01.2018 14:00:00 6,3 6,0 4 2 SSE 1026,7 3,8
18.01.2018 13:00:00 5,1 4,8 8 4 SSE 1027,7 2,0
18.01.2018 12:00:00 4,1 3,8 8 4 S 1028,4 3,0
18.01.2018 11:00:00 3,6 3,3 9 5 S 1028,4 2,7
18.01.2018 10:00:00 2,9 2,5 8 4 S 1028,2 5
18.01.2018 09:00:00 3,0 2,4 4 2 SSE 1028,2 8
18.01.2018 08:00:00 3,1 2,7 5 3 S 1027,8 3,5
18.01.2018 07:00:00 2,0 1,7 2 1 S 1027,9 2,5
18.01.2018 06:00:00 0,7 0,3 0 0 N 1028,5 8
18.01.2018 05:00:00 3,8 2,5 2 1 S 1028,0 12
18.01.2018 04:00:00 3,1 2,0 4 2 S 1028,9 9
18.01.2018 03:00:00 3,1 2,8 4 2 S 1029,2 10
18.01.2018 02:00:00 3,4 3,1 4 2 S 1030,0 3,7
18.01.2018 01:00:00 3,6 3,2 5 3 S 1030,6 7
18.01.2018 00:00:00 4,1 3,5 2 1 SSW 1030,8 9
17.01.2018 23:00:00 5,3 3,7 5 3 WNW 1030,9 11
17.01.2018 22:00:00 6,3 3,4 5 3 WNW 1030,6 15
17.01.2018 21:00:00 5,6 2,9 5 3 WNW 1030,7 18
17.01.2018 20:00:00 6,6 3,4 0 0 N 1030,4 17
17.01.2018 19:00:00 7,4 4,7 0 0 N 1030,3 18
17.01.2018 18:00:00 8,8 6,0 0 0 N 1030,1 16
17.01.2018 17:00:00 9,6 5,3 5 3 NNE 1030,0 13
17.01.2018 16:00:00 9,9 6,4 4 2 N 1030,3 18
17.01.2018 15:00:00 10,1 6,3 5 3 N 1030,7 14
17.01.2018 14:00:00 10,6 6,3 4 2 N 1031,1 15
17.01.2018 13:00:00 10,6 5,3 5 3 N 1031,8 12
17.01.2018 12:00:00 9,5 6,8 0 0 N 1032,4 10
17.01.2018 11:00:00 8,2 6,5 4 2 NW 1032,4 9
17.01.2018 10:00:00 7,4 6,2 4 2 NW 1031,8 10
17.01.2018 09:00:00 7,5 6,3 2 1 NW 1031,7 10
17.01.2018 08:00:00 7,5 6,6 0 0 N 1031,1 9
17.01.2018 07:00:00 8,0 6,4 4 2 N 1030,9 10
17.01.2018 06:00:00 8,0 6,6 2 1 W 1030,8 10
17.01.2018 05:00:00 8,3 7,2 2 1 WNW 1030,8 13
17.01.2018 04:00:00 8,5 7,6 11 6 NNW 1030,8 30
17.01.2018 03:00:00 9,3 8,1 11 6 N 1030,2 13
17.01.2018 02:00:00 9,4 8,5 5 3 W 1030,2 30
17.01.2018 01:00:00 9,9 9,0 13 7 WNW 1030,1 30
17.01.2018 00:00:00 10,5 9,7 11 6 WSW 1029,4 30
16.01.2018 23:00:00 10,4 9,8 8 4 W 1029,4 -
16.01.2018 22:00:00 10,7 10,2 15 8 W 1029,1 7
16.01.2018 21:00:00 10,8 10,6 15 8 WSW 1028,6 4,1

tt = Température de l'air
td = dewpoint
ff = Vitesse du vent
dd = Direction du vent
ppp = reduced air pressure
vv = visibility

stations d'obs. à proximité